Regional Weather Roundup
Issued by NWS

Home | Current Version | Previous Version | Graphics & Text | Print | Product List | Glossary On
Versions: 1 2 3 4 5 6 7 8 9 10 11 12 13 14 15 16 17 18 19 20 21 22 23 24 25 26 27 28 29 30 31 32 33 34 35 36 37 38 39 40 41 42 43 44 45 46 47 48 49 50
000
ASUS45 KBOU 141610
RWRCO

WEATHER ROUNDUP FOR COLORADO
NATIONAL WEATHER SERVICE DENVER/BOULDER CO
900 AM MST THU DEC 14 2017

NOTE: "FAIR" INDICATES FEW OR NO CLOUDS BELOW 12000 FEET WITH NO
SIGNIFICANT WEATHER AND/OR OBSTRUCTIONS TO VISIBILITY.

COZ001>005-013-030-031-141700-
...NORTHWEST COLORADO...

CITY           SKY/WX    TMP DP  RH WIND       PRES   REMARKS
CRAIG          FAIR      18  13  80 SW10      30.32R WCI   6
HAYDEN         PTSUNNY   20  17  88 CALM      30.31R
MEEKER         PTSUNNY   27  20  75 NE9       30.30R WCI  18
RABBIT EARS PA FOG       14  12  92 NW6       30.17S VSB 1/2 WCI   5
STEAMBOAT SPGS CLOUDY    22  19  89 CALM      30.27R
WALDEN         CLOUDY    21  12  68 NW13      30.24R WCI   9
$$

COZ006>008-011-141700-
...WEST CENTRAL VALLEYS...

CITY           SKY/WX    TMP DP  RH WIND       PRES   REMARKS
GRAND JUNCTION FAIR      33  23  66 NW7       30.28R WCI  27
MONTROSE       CLOUDY    32  25  75 W3        30.25R
EAGLE          FOG       27  25  93 CALM      30.28R VSB 1/2
RIFLE          FAIR      35  22  58 W10       30.28R WCI  27
DELTA          FAIR      35  28  75 CALM      30.24R
NUCLA          FAIR      34  23  64 CALM      30.23R
$$

COZ017>023-064>068-141700-
...SOUTHWEST COLORADO...

CITY           SKY/WX    TMP DP  RH WIND       PRES   REMARKS
DURANGO        FAIR      28  10  46 E3        30.08R
CORTEZ         PTSUNNY   38  24  57 NW12      30.12R
PAGOSA SPRINGS LGT SNOW  30  29  96 CALM      30.10R
TELLURIDE      FLURRIES  25  21  83 W7        30.16R WCI  18
WOLF CREEK PAS SNOW      14  14 100 N13       30.16R VSB 1/2 WCI   0
$$

COZ009-010-012-014-032>034-037-058>063-141700-
...CENTRAL COLORADO...

CITY           SKY/WX    TMP DP  RH WIND       PRES   REMARKS
ASPEN          PTSUNNY   27  23  85 N3        30.21R
BUENA VISTA    CLOUDY    21  17  86 CALM      30.19S
COPPER MTN     NOT AVBL
BERTHOUD PASS  CLOUDY     5  -6  61 N14G33    30.10R WCI -12
COTTONWOOD PAS LGT SNOW  27  23  86 CALM      30.17R
GUNNISON       FAIR      27  25  92 CALM      30.18R
KREMMLING      CLOUDY    32  21  64 NW5       30.26R WCI  27
LEADVILLE      CLOUDY    17  14  88 CALM      30.15S
MONARCH PASS   CLOUDY    12  10  92 NE20      30.21R WCI  -6
SALIDA         CLOUDY    27  24  87 SE7       30.28R WCI  19
SUNLIGHT       CLOUDY   N/A N/A N/A NE5       30.24R FOG
WILKERSON PASS SNOW     N/A N/A N/A W6        30.15R VSB<1/4
$$

COZ069>075-141700-
...SAN LUIS VALLEY/SANGRE DE CRISTO MOUNTAINS...

CITY           SKY/WX    TMP DP  RH WIND       PRES   REMARKS
ALAMOSA        SNOW      26  24  92 N3        30.16R VSB 1/4
DEL NORTE      LGT SNOW  27  25  93 SE3       30.16R VSB 1
LA VETA PASS   LGT SNOW  16  12  86 N9          N/A  VSB 3/4 WCI   4
SAGUACHE       PTSUNNY   28  27  93 NW3       30.15R
$$

COZ035-036-038>040-141700-
...NORTHERN COLORADO FRONT RANGE...

CITY           SKY/WX    TMP DP  RH WIND       PRES   REMARKS
DENVER INTL AP FAIR      30  25  81 SW13      30.19F WCI  20
DMNS CITY PARK NOT AVBL
AURORA         NOT AVBL
FRONT RANGE AP PTSUNNY   32  28  86 S9        30.20F WCI  24
ERIE MUNI ARPT FAIR      32  28  84 SW7       30.25F WCI  26
BOULDER MUN AP FAIR      32  27  80 S3        30.20S
CENTENNIAL     FAIR      28  24  85 S3        30.20S
BROOMFIELD     NOT AVBL
FORT COLLINS   CLOUDY    31  28  89 SW6       30.22R WCI  25
LONGMONT       FAIR      30  27  88 NW6       30.23S WCI  24
$$

COZ041-046-047-076>085-087-088-141700-
...PIKES PEAK/PALMER DIVIDE AND SOUTHERN FOOTHILLS...

CITY           SKY/WX    TMP DP  RH WIND       PRES   REMARKS
COLO. SPRINGS  PTSUNNY   30  21  69 NW9       30.22S WCI  22
A. F. ACADEMY  CLOUDY    28  20  73 N5        30.20R WCI  22
SCHRIEVER AFB  FAIR      28  22  76 N5        30.22S WCI  23
CHEYENNE MTN   FLURRIES  27  19  72 CALM      30.15R
ELLICOTT         N/A    N/A N/A N/A N8        30.20R
FALCON         FAIR      26  20  77 NW8       30.21R WCI  18
FORT CARSON    NOT AVBL
LIMON          FAIR      26  25  96 W10       30.19F WCI  16
MONUMENT HILL  CLOUDY    23  21  93 W5        30.20S WCI  17
CANON CITY     LGT RAIN  32  32 100 CALM      30.24R
WALSENBURG     CLOUDY    30  28  93 W5        30.25R WCI  25
TRINIDAD       LGT SNOW  29  26  89 W6        30.26R VSB 1   WCI  23
$$

COZ042>045-048>051-090-091-141700-
...NORTHEAST COLORADO...

CITY           SKY/WX    TMP DP  RH WIND       PRES   REMARKS
GREELEY ARPT   FLURRIES  34  26  72 W7        30.22R WCI  28
AKRON          CLOUDY    31  25  78 W16       30.17S WCI  20
BURLINGTON     PTSUNNY   37  27  67 NW21G32   30.16S
WRAY           CLOUDY    36  28  75 W15       30.16S
YUMA           CLOUDY    32  27  80 NW13G18   30.17S WCI  22
STERLING       CLOUDY    36  27  69 NW13      30.17S
HOLYOKE        FAIR      37  28  70 NW13G20   30.15R
FORT MORGAN    CLOUDY    31  26  82 W6        30.21R WCI  26
$$

COZ086-089-092>099-141700-
...SOUTHEAST COLORADO...

CITY           SKY/WX    TMP DP  RH WIND       PRES   REMARKS
PUEBLO         CLOUDY    34  31  88 SW5       30.26R WCI  30
LA JUNTA       LGT SNOW  34  31  88 W10       30.26R WCI  26
LAMAR          CLOUDY    35  32  88 W12       30.22R WCI  27
SPRINGFIELD      N/A     31  31 100 NW10      30.22R WCI  22
$$



USA.gov is the U.S. government's official web portal to all federal, state and local government web resources and services.